Regional Weather Roundup
Issued by NWS

Home | Current Version | Previous Version | Graphics & Text | Print | Product List | Glossary On
Versions: 1 2 3 4 5 6 7 8 9 10 11 12 13 14 15 16 17 18 19 20 21 22 23 24 25 26 27 28 29 30 31 32 33 34 35 36 37 38 39 40 41 42 43 44 45 46 47 48 49 50
000
ASUS45 KPSR 260410
RWRAZ

ARIZONA HOURLY REGIONAL WEATHER ROUNDUP
NATIONAL WEATHER SERVICE PHOENIX AZ
900 PM MST WED APR 25 2018

NOTE: FAIR INDICATES FEW OR NO CLOUDS BELOW 12,000 FEET WITH NO
SIGNIFICANT WEATHER AND/OR OBSTRUCTIONS TO VISIBILITY.

AZZ001>003-036-260500-
NORTHWEST ARIZONA

CITY           SKY/WX    TMP DP  RH WIND       PRES   REMARKS
BULLHEAD CITY  CLEAR     88  16   7 E5        29.82R
KINGMAN        CLEAR     71  19  14 S6        30.02R
$$

AZZ004>008-015-016-018-260500-
NORTH CENTRAL ARIZONA

CITY           SKY/WX    TMP DP  RH WIND       PRES   REMARKS
GRAND CANYON   PTCLDY    51  16  24 E3        30.21S
WILLIAMS       CLEAR     54  14  20 SE9       30.20R
PRESCOTT       CLEAR     68  22  17 SW5       30.10R
FLAGSTAFF      CLEAR     50  18  28 SW3       30.24R
PAYSON         CLEAR     68  18  14 NE6       30.12R
PAGE           PTCLDY    68  21  16 CALM      30.05R
$$

AZZ009>014-017-260500-
NORTHEAST ARIZONA

CITY           SKY/WX    TMP DP  RH WIND       PRES   REMARKS
WINSLOW        PTCLDY    61  13  15 CALM      30.11R
SAINT JOHNS    CLEAR     56  18  22 NW5       30.13R
WINDOW ROCK    CLEAR     54   3  12 N6        30.21R
SHOW LOW       CLEAR     59  12  15 CALM      30.21R
$$

AZZ540-542>544-546-548-260500-
GREATER PHOENIX AREA

CITY           SKY/WX    TMP DP  RH WIND       PRES   REMARKS
PHOENIX        MOCLDY    88  24  10 CALM      29.83R
BUCKEYE        PTCLDY    82  27  13 SW7       29.85R
LUKE AFB       CLEAR     83  31  15 SW7       29.83R
DEER VALLEY    CLEAR     86  19   8 CALM      29.86R
SCOTTSDALE     PTCLDY    87  27  11 CALM      29.88R
MESA-GATEWAY   CLEAR     84  25  11 CALM      29.88R
CHANDLER       CLEAR     86  27  11 CALM      29.85R
$$

AZZ539-553-260500-
SOUTHWEST MARICOPA COUNTY AND PINAL COUNTY

CITY           SKY/WX    TMP DP  RH WIND       PRES   REMARKS
CASA GRANDE    PTCLDY    82  21  10 NW5       29.88R
GILA BEND      FAIR      84  18   8 SW8       29.83R
$$

AZZ503-504-507>509-260500-
SOUTHEAST ARIZONA

CITY           SKY/WX    TMP DP  RH WIND       PRES   REMARKS
TUCSON         CLEAR     80  25  13 SW5       29.97R
DAVIS-MONTHAN  PTCLDY    78  25  14 NW6       29.95R
NOGALES        CLEAR     72  24  16 S3        30.05R
SIERRA VISTA   CLEAR     74  14  10 SW13      30.11
DOUGLAS        CLEAR     74  21  13 W7        30.06R
SAFFORD        CLEAR     77  18  11 NW10      29.95R
$$

AZZ532-260500-
SOUTHWEST ARIZONA

CITY           SKY/WX    TMP DP  RH WIND       PRES   REMARKS
YUMA           PTCLDY    88  41  19 SW7       29.84R
$$

CAZ041-043-047-048-061-525>527-560>570-260500-
SOUTHERN CALIFORNIA

CITY           SKY/WX    TMP DP  RH WIND       PRES   REMARKS
DOWNTOWN L.A.  CLEAR     58  52  80 CALM      30.02S
L.A. AIRPORT   MOCLDY    58  53  84 W10       30.03S
SAN DIEGO      MOCLDY    60  53  77 W8        30.06S
BURBANK        CLEAR     63  51  65 SE9       30.01R
ONTARIO        PTCLDY    65  48  54 W7        30.01R
RIVERSIDE      CLEAR     65  47  52 W6        30.02R
PALM SPRINGS   PTCLDY    85  37  18 NW20G28   29.86R
EL CENTRO NAS  PTCLDY    85  35  16 W16       29.84R
IMPERIAL       MOCLDY    82  42  24 W12       29.82R
BLYTHE         MOCLDY    90  30  11 W10       29.82R
NEEDLES        CLEAR     92  18   6 W9        29.83R
$$

NVZ020-UTZ003-260500-
SOUTHERN NEVADA-UTAH

CITY           SKY/WX    TMP DP  RH WIND       PRES   REMARKS
LAS VEGAS      MOCLDY    87  23   9 CALM      29.91R
SALT LAKE CITY PTCLDY    59  36  42 SW5       30.09R
$$

NMZ009-TXZ055-260500-
NEW MEXICO-WEST TEXAS

CITY           SKY/WX    TMP DP  RH WIND       PRES   REMARKS
ALBUQUERQUE    PTCLDY    61  28  28 SE7       30.11S
EL PASO        CLEAR     63  39  41 E13       30.09S
$$


........................KEY........................
SKY/WX - SKY CONDITION/WEATHER
TMP    - TEMPERATURE IN FAHRENHEIT
DP     - DEW POINT IN FAHRENHEIT
RH     - RELATIVE HUMIDITY IN PERCENT
WIND   - DIRECTION AND SPEED IN MILES PER HOUR (MPH)
VRB    - VARIABLE WIND DIRECTION
PRES   - MEAN SEA LEVEL PRESSURE IN INCHES OF MERCURY
         F - FALLING PRESSURE   R - RISING PRESSURE
         S - STEADY PRESSURE
VSB    - VISIBILITY IN MILES
HX     - HEAT INDEX IN FAHRENHEIT
WCI    - WIND CHILL INDEX IN FAHRENHEIT
TC     - TEMPERATURE IN CELSIUS WHICH IS ALSO KNOWN AS
         TEMPERATURE IN CENTIGRADE
AFB    - AIR FORCE BASE
         LUKE AFB IS LUKE AIR FORCE BASE
         DAVIS-MONTHAN IS DAVIS-MONTHAN AIR FORCE BASE
NAS    - NAVAL AIR STATION
         EL CENTRO NAS IS EL CENTRO NAVAL AIR STATION
N/A    - NOT AVAILABLE




USA.gov is the U.S. government's official web portal to all federal, state and local government web resources and services.